Stanton, MN

12:23 AM CDT on March 27, 2017 (GMT -0500)
Stanton

Weather History for KSYN - February, 2013

Change the Weather History Date:

Wednesday, February 6, 2013

  Actual Average (KLVN) Record (KLVN)
Temperature  
Mean Temperature 14 °F -  
Max Temperature 31 °F 21 °F 47 °F (1991)
Min Temperature -4 °F 4 °F -25 °F (1982)
Degree Days  
Heating Degree Days 52    
Moisture  
Dew Point 13 °F    
Average Humidity 80    
Maximum Humidity 91    
Minimum Humidity 69    
Precipitation  
Precipitation 0.01 in - - ()
Sea Level Pressure  
Sea Level Pressure 29.99 in    
Wind  
Wind Speed 3 mph (ESE)    
Max Wind Speed 9 mph    
Max Gust Speed 16 mph    
Visibility 8 miles    
Events Snow    
Averages and records for this station are not official NWS values.
T = Trace of Precipitation, MM = Missing Value Source: NWS Daily Summary

Daily Weather History Graph

Daily Weather History Graph

Search for Another Location

Airport or City:

Trip Planner

Search our weather history database for the weather conditions in past years. The results will help you decide how hot, cold, wet, or windy it might be!

Date:

Astronomy

Feb. 06, 2013 Rise Set
Actual Time 7:24 AM CST 5:28 PM CST
Civil Twilight 6:53 AM CST 5:59 PM CST
Nautical Twilight 6:19 AM CST 6:33 PM CST
Astronomical Twilight 5:45 AM CST 7:07 PM CST
Moon 4:13 AM CST (2/6) 1:43 PM CST (2/6)
Length of Visible Light 11h 05m
Length of Day
10h 04m
Waning Crescent, 17% of the Moon is Illuminated
Feb 6
Waning Crescent
Feb 10
New
Feb 17
First Quarter
Feb 25
Full
Mar 4
Last Quarter

Hourly Weather History & Observations

Time (CST) Temp. Windchill Dew Point Humidity Pressure Visibility Wind Dir Wind Speed Gust Speed Precip Events Conditions
12:12 AM 3.0 °F -6.4 °F -0.9 °F 84% 30.06 in 7.0 mi SSW 4.6 mph - N/A   Clear
12:32 AM 2.1 °F -7.4 °F -2.6 °F 81% 30.06 in 7.0 mi South 4.6 mph - N/A   Clear
1:12 AM 2.8 °F -6.6 °F -1.7 °F 81% 30.07 in 10.0 mi SSW 4.6 mph - N/A   Clear
1:32 AM 3.0 °F -4.4 °F -1.7 °F 81% 30.07 in 10.0 mi SSW 3.5 mph - N/A   Clear
2:12 AM 0.1 °F - -5.1 °F 79% 30.10 in 10.0 mi Calm Calm - N/A   Clear
2:33 AM 1.4 °F - -3.3 °F 81% 30.10 in 10.0 mi Calm Calm - N/A   Clear
2:52 AM -3.1 °F - -8.0 °F 80% 30.10 in 10.0 mi Calm Calm - N/A   Clear
3:13 AM -4.4 °F - -9.4 °F 79% 30.08 in 10.0 mi Calm Calm - N/A   Clear
3:33 AM -3.5 °F - -8.1 °F 80% 30.07 in 10.0 mi Calm Calm - N/A   Clear
3:52 AM -4.2 °F - -9.2 °F 79% 30.06 in 10.0 mi Calm Calm - N/A   Clear
4:13 AM -3.3 °F - -8.3 °F 79% 30.06 in 10.0 mi Calm Calm - N/A   Clear
4:33 AM -3.1 °F -11.4 °F -8.0 °F 80% 30.06 in 10.0 mi South 3.5 mph - N/A   Clear
4:52 AM -4.7 °F - -9.8 °F 79% 30.05 in 10.0 mi Calm Calm - N/A   Scattered Clouds
5:13 AM -2.4 °F -12.7 °F -6.7 °F 82% 30.07 in 10.0 mi SW 4.6 mph - N/A   Mostly Cloudy
5:33 AM 3.9 °F -3.4 °F -0.2 °F 83% 30.07 in 10.0 mi SW 3.5 mph - N/A   Overcast
5:52 AM 5.4 °F - 1.4 °F 84% 30.08 in 7.0 mi Calm Calm - N/A Snow Light Snow
6:13 AM 4.5 °F -2.7 °F 0.1 °F 82% 30.09 in 7.0 mi SSW 3.5 mph - N/A   Clear
6:33 AM 4.5 °F -2.7 °F 0.5 °F 84% 30.08 in 7.0 mi SSW 3.5 mph - N/A   Clear
6:52 AM 7.5 °F - 3.7 °F 85% 30.06 in 7.0 mi Calm Calm - N/A   Clear
7:13 AM 11.7 °F - 8.4 °F 87% 30.06 in 7.0 mi Calm Calm - N/A   Clear
7:33 AM 12.0 °F - 8.6 °F 86% 30.05 in 7.0 mi Calm Calm - N/A   Clear
7:52 AM 11.3 °F - 7.7 °F 85% 30.06 in 5.0 mi Calm Calm - N/A   Clear
8:13 AM 13.6 °F - 10.4 °F 87% 30.06 in 7.0 mi Calm Calm - N/A   Clear
8:32 AM 14.2 °F - 11.1 °F 88% 30.06 in 7.0 mi Calm Calm - N/A   Clear
8:53 AM 16.9 °F 11.5 °F 14.0 °F 88% 30.06 in 7.0 mi South 3.5 mph - N/A   Mostly Cloudy
9:13 AM 18.0 °F 12.7 °F 15.3 °F 89% 30.06 in 7.0 mi South 3.5 mph - N/A   Overcast
9:32 AM 19.0 °F 11.1 °F 16.5 °F 90% 30.06 in 7.0 mi South 5.8 mph - N/A   Mostly Cloudy
9:53 AM 19.9 °F - 17.4 °F 90% 30.05 in 7.0 mi Calm Calm - N/A   Overcast
10:13 AM 20.3 °F 13.8 °F 18.0 °F 91% 30.06 in 7.0 mi East 4.6 mph - N/A   Overcast
10:32 AM 20.7 °F 15.8 °F 18.0 °F 89% 30.05 in 7.0 mi East 3.5 mph - N/A   Overcast
10:52 AM 22.1 °F 15.9 °F 18.7 °F 87% 30.04 in 7.0 mi ESE 4.6 mph - N/A   Overcast
11:13 AM 23.4 °F 17.4 °F 18.1 °F 80% 30.03 in 7.0 mi SE 4.6 mph - N/A   Overcast
11:32 AM 24.6 °F 18.8 °F 18.1 °F 76% 30.03 in 7.0 mi SE 4.6 mph - N/A   Mostly Cloudy
12:12 PM 26.8 °F 18.5 °F 18.9 °F 72% 29.99 in 10.0 mi ESE 8.1 mph - 0.01 in   Mostly Cloudy
12:33 PM 27.3 °F 19.9 °F 19.4 °F 72% 29.98 in 10.0 mi ESE 6.9 mph - 0.01 in   Overcast
12:53 PM 28.0 °F 20.8 °F 19.8 °F 71% 29.95 in 7.0 mi ESE 6.9 mph - 0.01 in   Overcast
1:12 PM 27.5 °F 20.2 °F 19.6 °F 72% 29.96 in 7.0 mi SE 6.9 mph 16.1 mph N/A   Overcast
1:33 PM 27.9 °F 19.8 °F 20.3 °F 73% 29.93 in 7.0 mi SE 8.1 mph - N/A   Overcast
1:52 PM 29.3 °F 21.5 °F 20.7 °F 70% 29.92 in 10.0 mi ESE 8.1 mph - N/A   Overcast
2:12 PM 30.2 °F 21.9 °F 21.2 °F 69% 29.91 in 10.0 mi ESE 9.2 mph 16.1 mph N/A   Overcast
2:33 PM 30.2 °F 24.3 °F 21.2 °F 69% 29.91 in 10.0 mi ESE 5.8 mph - N/A   Scattered Clouds
2:53 PM 30.6 °F 27.1 °F 21.7 °F 70% 29.93 in 10.0 mi SE 3.5 mph - N/A   Scattered Clouds
3:33 PM 30.7 °F 24.1 °F 22.1 °F 70% 29.92 in 10.0 mi ESE 6.9 mph - N/A   Clear
3:53 PM 30.9 °F 25.2 °F 22.1 °F 70% 29.91 in 10.0 mi SE 5.8 mph - N/A   Clear
4:12 PM 30.6 °F 23.1 °F 22.1 °F 71% 29.91 in 10.0 mi SE 8.1 mph - N/A   Clear
4:33 PM 30.7 °F 26.0 °F 22.6 °F 72% 29.91 in 10.0 mi ESE 4.6 mph - N/A   Clear
4:52 PM 30.7 °F 24.9 °F 23.0 °F 73% 29.91 in 10.0 mi East 5.8 mph - N/A   Clear
5:13 PM 30.9 °F 26.2 °F 23.4 °F 74% 29.91 in 10.0 mi East 4.6 mph - N/A   Clear
5:33 PM 30.7 °F 26.0 °F 23.5 °F 75% 29.91 in 10.0 mi ESE 4.6 mph - N/A   Clear
5:52 PM 28.9 °F 22.8 °F 23.0 °F 78% 29.91 in 10.0 mi ENE 5.8 mph - N/A   Clear
6:13 PM 28.2 °F 23.1 °F 22.6 °F 80% 29.91 in 10.0 mi ENE 4.6 mph - N/A   Clear
6:33 PM 28.4 °F 23.3 °F 23.0 °F 80% 29.91 in 10.0 mi East 4.6 mph - N/A   Clear
6:52 PM 30.0 °F 26.5 °F 24.4 °F 80% 29.91 in 10.0 mi SE 3.5 mph - N/A   Clear
7:12 PM 31.1 °F 26.4 °F 25.0 °F 78% 29.91 in 10.0 mi ESE 4.6 mph - N/A   Clear
7:33 PM 31.3 °F 26.6 °F 25.3 °F 79% 29.92 in 10.0 mi East 4.6 mph - N/A   Clear
7:52 PM 29.1 °F 23.0 °F 23.9 °F 81% 29.92 in 7.0 mi ENE 5.8 mph - N/A   Scattered Clouds
8:12 PM 29.1 °F 22.1 °F 23.7 °F 80% 29.93 in 7.0 mi East 6.9 mph - N/A   Scattered Clouds
8:33 PM 28.9 °F 22.8 °F 23.7 °F 81% 29.93 in 7.0 mi East 5.8 mph - N/A   Scattered Clouds
8:52 PM 28.8 °F 23.7 °F 23.9 °F 82% 29.93 in 7.0 mi East 4.6 mph - N/A   Scattered Clouds
9:12 PM 29.7 °F 26.1 °F 24.6 °F 81% 29.93 in 7.0 mi ESE 3.5 mph - N/A   Scattered Clouds
9:33 PM 30.4 °F - 25.0 °F 80% 29.94 in 7.0 mi Calm Calm - N/A   Scattered Clouds
9:53 PM 27.9 °F 24.0 °F 23.9 °F 85% 29.93 in 7.0 mi East 3.5 mph - N/A   Clear
10:12 PM 28.8 °F 25.0 °F 24.3 °F 83% 29.93 in 7.0 mi East 3.5 mph - N/A   Clear
10:33 PM 24.3 °F 18.4 °F 20.3 °F 85% 29.93 in 5.0 mi NE 4.6 mph - N/A   Clear
10:53 PM 23.5 °F 17.6 °F 20.3 °F 87% 29.93 in 5.0 mi NNE 4.6 mph - N/A   Clear
11:12 PM 22.8 °F 18.2 °F 19.9 °F 89% 29.94 in 4.0 mi NE 3.5 mph - N/A   Clear
11:33 PM 24.4 °F - 22.1 °F 91% 29.94 in 4.0 mi Calm Calm - N/A   Clear
11:52 PM 21.0 °F 16.2 °F 18.7 °F 91% 29.94 in 1.0 mi NE 3.5 mph - N/A   Mist